QPF
0.00 0.00 0.00 0.00 0.00 0.00 0.00 0.00 0.00 0.00 0.00 0.00 0.00 0.00 0.00 0.00 0.00 0.00 0.00 0.00 0.00 0.00 0.00 0.00 0.01 0.01 0.01 0.01 0.01 0.01 0.01 0.01 0.01 0.00 0.00 0.00 0.00 0.01 0.01 0.01 0.01 0.01 0.01 0.01 0.00 0.00 0.00 0.00 0.00
0.00 0.00 0.00 0.00 0.00 0.00 0.00 0.00 0.00 0.00 0.00 0.00 0.00 0.00 0.00 0.00 0.00 0.00 0.00 0.00 0.00 0.00 0.00 0.00 0.01 0.01 0.01 0.01 0.01 0.01 0.01 0.00 0.01 0.00 0.00 0.00 0.00 0.00 0.00 0.00 0.01 0.01 0.00 0.00 0.00 0.00 0.00 0.00 0.00
0.00 0.00 0.00 0.00 0.00 0.00 0.00 0.00 0.00 0.00 0.00 0.00 0.00 0.00 0.00 0.00 0.00 0.00 0.00 0.00 0.00 0.00 0.00 0.00 0.01 0.01 0.01 0.01 0.01 0.01 0.01 0.00 0.00 0.00 0.00 0.00 0.00 0.00 0.00 0.00 0.00 0.00 0.00 0.00 0.00 0.00 0.00 0.00 0.00
0.00 0.00 0.00 0.00 0.00 0.00 0.00 0.00 0.00 0.00 0.00 0.00 0.00 0.00 0.00 0.00 0.00 0.00 0.00 0.00 0.00 0.00 0.00 0.00 0.01 0.01 0.01 0.01 0.01 0.01 0.01 0.00 0.00 0.00 0.00 0.00 0.00 0.00 0.00 0.00 0.00 0.00 0.00 0.00 0.00 0.00 0.00 0.00 0.00
0.00 0.00 0.00 0.00 0.00 0.00 0.00 0.00 0.00 0.00 0.00 0.00 0.00 0.00 0.00 0.00 0.00 0.00 0.00 0.00 0.00 0.00 0.00 0.00 0.01 0.01 0.01 0.01 0.01 0.01 0.01 0.00 0.00 0.00 0.00 0.00 0.01 0.00 0.00 0.00 0.00 0.00 0.00 0.00 0.00 0.00 0.00 0.00 0.00
0.00 0.00 0.00 0.00 0.00 0.00 0.00 0.00 0.00 0.00 0.00 0.00 0.00 0.00 0.00 0.00 0.00 0.00 0.00 0.00 0.00 0.00 0.00 0.00 0.01 0.01 0.01 0.01 0.01 0.01 0.00 0.00 0.00 0.00 0.00 0.00 0.01 0.00 0.00 0.00 0.00 0.00 0.00 0.00 0.00 0.00 0.00 0.00 0.00
0.01 0.00 0.00 0.00 0.00 0.00 0.00 0.00 0.00 0.00 0.00 0.00 0.00 0.00 0.00 0.00 0.00 0.00 0.00 0.00 0.00 0.00 0.00 0.00 0.01 0.00 0.00 0.01 0.01 0.01 0.01 0.00 0.00 0.00 0.00 0.00 0.00 0.00 0.00 0.00 0.00 0.00 0.00 0.00 0.00 0.00 0.00 0.00 0.00
0.02 0.02 0.01 0.00 0.00 0.00 0.00 0.00 0.00 0.00 0.00 0.00 0.00 0.00 0.00 0.00 0.00 0.00 0.00 0.00 0.00 0.00 0.00 0.00 0.00 0.00 0.00 0.00 0.00 0.00 0.01 0.01 0.00 0.00 0.00 0.00 0.00 0.00 0.00 0.00 0.00 0.00 0.00 0.00 0.00 0.00 0.00 0.00 0.00
0.02 0.02 0.01 0.00 0.00 0.00 0.00 0.00 0.00 0.00 0.00 0.00 0.00 0.00 0.00 0.00 0.00 0.00 0.00 0.00 0.00 0.00 0.00 0.00 0.00 0.00 0.00 0.00 0.00 0.00 0.00 0.01 0.00 0.00 0.00 0.00 0.00 0.00 0.00 0.00 0.00 0.00 0.00 0.00 0.00 0.00 0.00 0.00 0.00
0.02 0.01 0.00 0.00 0.00 0.00 0.00 0.00 0.00 0.00 0.00 0.00 0.00 0.00 0.00 0.00 0.00 0.00 0.00 0.00 0.00 0.00 0.00 0.00 0.00 0.00 0.00 0.00 0.00 0.00 0.00 0.00 0.00 0.00 0.00 0.00 0.00 0.00 0.00 0.00 0.00 0.00 0.00 0.00 0.00 0.00 0.00 0.00 0.00
0.02 0.01 0.00 0.00 0.00 0.00 0.00 0.00 0.00 0.00 0.00 0.00 0.00 0.00 0.00 0.00 0.00 0.00 0.00 0.00 0.00 0.00 0.00 0.00 0.00 0.00 0.00 0.00 0.00 0.00 0.00 0.00 0.00 0.00 0.00 0.00 0.00 0.00 0.00 0.00 0.00 0.00 0.00 0.00 0.00 0.00 0.00 0.00 0.00
0.01 0.01 0.00 0.00 0.00 0.00 0.00 0.00 0.00 0.00 0.00 0.00 0.00 0.00 0.00 0.00 0.00 0.00 0.00 0.00 0.00 0.00 0.00 0.00 0.00 0.00 0.00 0.00 0.00 0.00 0.00 0.00 0.00 0.00 0.00 0.00 0.00 0.00 0.00 0.00 0.00 0.00 0.00 0.00 0.00 0.00 0.00 0.00 0.00
0.01 0.01 0.01 0.00 0.00 0.00 0.00 0.00 0.00 0.00 0.00 0.00 0.00 0.00 0.00 0.00 0.00 0.00 0.00 0.00 0.00 0.00 0.00 0.00 0.00 0.00 0.00 0.00 0.00 0.00 0.00 0.00 0.00 0.00 0.00 0.00 0.00 0.00 0.00 0.00 0.00 0.00 0.00 0.00 0.00 0.00 0.00 0.00 0.00
0.01 0.01 0.01 0.01 0.01 0.01 0.01 0.00 0.00 0.00 0.00 0.00 0.00 0.00 0.00 0.00 0.00 0.00 0.00 0.00 0.00 0.00 0.00 0.00 0.00 0.00 0.00 0.00 0.00 0.00 0.00 0.00 0.00 0.00 0.00 0.00 0.00 0.00 0.00 0.00 0.00 0.00 0.00 0.00 0.00 0.00 0.00 0.00 0.00
0.02 0.02 0.01 0.01 0.02 0.02 0.02 0.01 0.00 0.00 0.00 0.00 0.00 0.00 0.00 0.00 0.00 0.00 0.00 0.00 0.00 0.00 0.00 0.00 0.00 0.00 0.00 0.00 0.00 0.00 0.00 0.00 0.00 0.00 0.00 0.00 0.00 0.00 0.00 0.00 0.00 0.00 0.00 0.00 0.00 0.00 0.00 0.00 0.00
0.04 0.05 0.03 0.01 0.01 0.02 0.04 0.03 0.00 0.00 0.00 0.00 0.00 0.00 0.00 0.00 0.00 0.00 0.00 0.00 0.00 0.00 0.00 0.00 0.00 0.00 0.00 0.00 0.00 0.00 0.00 0.00 0.00 0.00 0.00 0.00 0.00 0.00 0.00 0.00 0.00 0.00 0.00 0.00 0.00 0.00 0.00 0.00 0.00
0.08 0.07 0.03 0.01 0.00 0.01 0.03 0.03 0.00 0.00 0.00 0.00 0.00 0.00 0.00 0.00 0.00 0.00 0.00 0.00 0.00 0.00 0.00 0.00 0.00 0.00 0.00 0.00 0.00 0.00 0.00 0.00 0.00 0.00 0.00 0.00 0.00 0.00 0.00 0.00 0.00 0.00 0.00 0.00 0.00 0.00 0.00 0.00 0.00
0.04 0.04 0.02 0.01 0.00 0.00 0.01 0.01 0.00 0.00 0.00 0.00 0.00 0.00 0.00 0.00 0.00 0.00 0.00 0.00 0.00 0.00 0.00 0.00 0.00 0.00 0.00 0.00 0.00 0.00 0.00 0.00 0.00 0.00 0.00 0.00 0.00 0.00 0.00 0.00 0.00 0.00 0.00 0.00 0.00 0.00 0.00 0.00 0.00
0.02 0.03 0.03 0.02 0.01 0.01 0.02 0.01 0.00 0.00 0.00 0.00 0.00 0.00 0.00 0.00 0.00 0.00 0.00 0.00 0.00 0.00 0.00 0.00 0.00 0.00 0.00 0.00 0.00 0.00 0.00 0.00 0.00 0.00 0.00 0.00 0.00 0.00 0.00 0.00 0.00 0.00 0.00 0.00 0.00 0.00 0.00 0.00 0.00
0.04 0.05 0.04 0.03 0.02 0.03 0.03 0.02 0.00 0.00 0.00 0.00 0.00 0.00 0.00 0.00 0.00 0.00 0.00 0.00 0.00 0.00 0.00 0.00 0.00 0.00 0.00 0.00 0.00 0.00 0.00 0.00 0.00 0.00 0.00 0.00 0.00 0.00 0.00 0.00 0.00 0.00 0.00 0.00 0.00 0.00 0.00 0.00 0.00
0.06 0.04 0.03 0.02 0.03 0.04 0.04 0.03 0.01 0.00 0.00 0.00 0.00 0.00 0.00 0.00 0.00 0.00 0.00 0.00 0.00 0.00 0.00 0.00 0.00 0.00 0.00 0.00 0.00 0.00 0.00 0.00 0.00 0.00 0.00 0.00 0.00 0.00 0.00 0.00 0.00 0.00 0.00 0.00 0.00 0.00 0.00 0.00 0.00
0.07 0.03 0.02 0.03 0.06 0.08 0.06 0.04 0.01 0.00 0.00 0.00 0.00 0.00 0.00 0.00 0.00 0.00 0.00 0.00 0.00 0.00 0.00 0.00 0.00 0.00 0.00 0.00 0.00 0.00 0.00 0.00 0.00 0.00 0.00 0.00 0.00 0.00 0.00 0.00 0.00 0.00 0.00 0.00 0.00 0.00 0.00 0.00 0.00
0.04 0.03 0.04 0.06 0.09 0.11 0.08 0.06 0.01 0.00 0.00 0.00 0.00 0.00 0.00 0.00 0.00 0.00 0.00 0.00 0.00 0.00 0.00 0.00 0.00 0.00 0.00 0.00 0.00 0.00 0.00 0.00 0.00 0.00 0.00 0.00 0.00 0.00 0.00 0.00 0.00 0.00 0.00 0.00 0.00 0.00 0.00 0.00 0.00
0.05 0.06 0.09 0.11 0.16 0.20 0.08 0.06 0.02 0.00 0.00 0.00 0.00 0.00 0.00 0.00 0.00 0.00 0.00 0.00 0.00 0.00 0.00 0.00 0.00 0.00 0.00 0.00 0.00 0.00 0.00 0.00 0.00 0.00 0.00 0.00 0.00 0.00 0.00 0.00 0.00 0.00 0.00 0.00 0.00 0.00 0.00 0.00 0.00
0.09 0.14 0.19 0.20 0.23 0.15 0.03 0.02 0.02 0.00 0.00 0.00 0.00 0.00 0.00 0.00 0.00 0.00 0.00 0.00 0.00 0.00 0.00 0.00 0.00 0.00 0.00 0.00 0.00 0.00 0.00 0.00 0.00 0.00 0.00 0.00 0.00 0.00 0.00 0.00 0.00 0.00 0.00 0.00 0.00 0.00 0.00 0.00 0.00
0.09 0.14 0.17 0.14 0.09 0.03 0.01 0.01 0.00 0.00 0.00 0.00 0.00 0.00 0.00 0.00 0.00 0.00 0.00 0.00 0.00 0.00 0.00 0.00 0.00 0.00 0.00 0.00 0.00 0.01 0.01 0.01 0.00 0.00 0.00 0.00 0.00 0.00 0.00 0.00 0.00 0.00 0.00 0.00 0.00 0.00 0.00 0.00 0.00
0.07 0.09 0.10 0.13 0.09 0.04 0.02 0.00 0.00 0.00 0.00 0.00 0.00 0.00 0.00 0.00 0.00 0.00 0.00 0.00 0.00 0.00 0.00 0.00 0.00 0.00 0.00 0.00 0.00 0.01 0.01 0.01 0.01 0.00 0.00 0.00 0.00 0.00 0.00 0.00 0.00 0.00 0.00 0.00 0.00 0.00 0.00 0.00 0.00
0.07 0.08 0.09 0.17 0.16 0.07 0.02 0.01 0.00 0.00 0.00 0.00 0.00 0.00 0.00 0.00 0.00 0.00 0.00 0.00 0.00 0.00 0.00 0.00 0.00 0.00 0.00 0.00 0.00 0.00 0.01 0.01 0.01 0.01 0.00 0.00 0.00 0.00 0.00 0.00 0.00 0.00 0.00 0.00 0.00 0.00 0.00 0.00 0.00
0.08 0.10 0.14 0.15 0.11 0.07 0.03 0.01 0.00 0.00 0.00 0.00 0.00 0.00 0.00 0.00 0.00 0.00 0.00 0.00 0.00 0.00 0.00 0.00 0.00 0.00 0.00 0.00 0.00 0.01 0.01 0.01 0.02 0.01 0.01 0.00 0.00 0.00 0.00 0.00 0.00 0.00 0.00 0.00 0.00 0.00 0.00 0.00 0.00
0.09 0.10 0.12 0.18 0.15 0.07 0.03 0.01 0.00 0.00 0.00 0.00 0.00 0.00 0.00 0.00 0.00 0.00 0.00 0.00 0.00 0.00 0.00 0.00 0.00 0.00 0.00 0.00 0.00 0.00 0.01 0.01 0.02 0.02 0.02 0.01 0.01 0.00 0.00 0.00 0.00 0.00 0.00 0.00 0.00 0.00 0.00 0.00 0.00
MSLP
1012.46 1013.39 1014.40 1015.31 1015.97 1016.26 1016.14 1015.67 1014.96 1014.18 1013.50 1013.07 1012.94 1013.13 1013.55 1014.10 1014.64 1015.08 1015.36 1015.49 1015.52 1015.52 1015.58 1015.75 1016.04 1016.42 1016.83 1017.22 1017.53 1017.73 1017.84 1017.88 1017.90 1017.97 1018.09 1018.28 1018.52 1018.76 1018.96 1019.10 1019.17 1019.17 1019.12 1019.07 1019.03 1019.02 1019.03 1019.05 1019.05
1012.81 1013.85 1014.89 1015.75 1016.27 1016.37 1016.03 1015.34 1014.46 1013.55 1012.82 1012.37 1012.28 1012.52 1012.99 1013.57 1014.13 1014.58 1014.87 1015.02 1015.08 1015.15 1015.29 1015.54 1015.92 1016.38 1016.86 1017.29 1017.63 1017.85 1017.97 1018.03 1018.09 1018.18 1018.34 1018.56 1018.81 1019.06 1019.26 1019.37 1019.41 1019.38 1019.32 1019.26 1019.22 1019.21 1019.24 1019.27 1019.30
1013.25 1014.34 1015.35 1016.10 1016.45 1016.34 1015.79 1014.93 1013.92 1012.96 1012.22 1011.83 1011.80 1012.10 1012.63 1013.24 1013.81 1014.25 1014.53 1014.67 1014.76 1014.87 1015.07 1015.41 1015.86 1016.39 1016.92 1017.38 1017.74 1017.98 1018.11 1018.19 1018.27 1018.38 1018.56 1018.80 1019.05 1019.28 1019.45 1019.54 1019.55 1019.50 1019.42 1019.35 1019.32 1019.33 1019.38 1019.44 1019.50
1013.74 1014.81 1015.73 1016.31 1016.47 1016.15 1015.44 1014.45 1013.38 1012.42 1011.75 1011.45 1011.52 1011.91 1012.49 1013.12 1013.68 1014.09 1014.34 1014.48 1014.57 1014.71 1014.96 1015.35 1015.85 1016.42 1016.98 1017.47 1017.83 1018.07 1018.22 1018.31 1018.40 1018.54 1018.73 1018.97 1019.22 1019.43 1019.58 1019.64 1019.62 1019.55 1019.46 1019.39 1019.38 1019.41 1019.48 1019.58 1019.67
1014.18 1015.17 1015.94 1016.35 1016.30 1015.81 1014.96 1013.91 1012.84 1011.96 1011.40 1011.23 1011.42 1011.90 1012.53 1013.17 1013.71 1014.09 1014.31 1014.42 1014.52 1014.67 1014.95 1015.37 1015.90 1016.49 1017.05 1017.53 1017.89 1018.13 1018.27 1018.37 1018.48 1018.64 1018.85 1019.09 1019.34 1019.54 1019.67 1019.71 1019.67 1019.59 1019.50 1019.45 1019.44 1019.50 1019.60 1019.73 1019.85
1014.50 1015.37 1015.96 1016.16 1015.93 1015.29 1014.37 1013.31 1012.32 1011.56 1011.15 1011.13 1011.45 1012.01 1012.68 1013.33 1013.84 1014.19 1014.37 1014.47 1014.56 1014.72 1015.02 1015.45 1015.99 1016.57 1017.12 1017.57 1017.91 1018.13 1018.27 1018.38 1018.51 1018.70 1018.93 1019.19 1019.45 1019.65 1019.77 1019.80 1019.76 1019.68 1019.60 1019.56 1019.57 1019.65 1019.77 1019.91 1020.04
1014.64 1015.34 1015.73 1015.75 1015.36 1014.63 1013.69 1012.69 1011.81 1011.21 1010.96 1011.09 1011.53 1012.16 1012.85 1013.49 1013.98 1014.29 1014.46 1014.54 1014.64 1014.83 1015.14 1015.58 1016.10 1016.66 1017.17 1017.59 1017.89 1018.10 1018.24 1018.37 1018.53 1018.75 1019.02 1019.30 1019.58 1019.79 1019.91 1019.95 1019.91 1019.84 1019.77 1019.74 1019.77 1019.86 1019.99 1020.13 1020.26
1014.58 1015.10 1015.31 1015.16 1014.66 1013.88 1012.96 1012.06 1011.32 1010.88 1010.80 1011.05 1011.58 1012.26 1012.96 1013.57 1014.03 1014.32 1014.48 1014.59 1014.71 1014.93 1015.26 1015.70 1016.22 1016.74 1017.21 1017.59 1017.86 1018.06 1018.21 1018.36 1018.56 1018.82 1019.12 1019.44 1019.73 1019.96 1020.10 1020.14 1020.12 1020.06 1020.01 1019.99 1020.03 1020.13 1020.25 1020.38 1020.50
1014.33 1014.68 1014.73 1014.46 1013.89 1013.12 1012.26 1011.48 1010.89 1010.60 1010.65 1011.00 1011.57 1012.25 1012.93 1013.51 1013.94 1014.22 1014.40 1014.53 1014.71 1014.96 1015.33 1015.78 1016.29 1016.79 1017.23 1017.57 1017.83 1018.02 1018.18 1018.37 1018.61 1018.90 1019.24 1019.59 1019.90 1020.14 1020.29 1020.34 1020.33 1020.29 1020.25 1020.25 1020.31 1020.40 1020.53 1020.65 1020.74
1013.97 1014.18 1014.10 1013.75 1013.16 1012.42 1011.66 1011.00 1010.54 1010.38 1010.51 1010.90 1011.47 1012.12 1012.75 1013.28 1013.68 1013.96 1014.16 1014.35 1014.58 1014.89 1015.30 1015.78 1016.29 1016.78 1017.19 1017.53 1017.78 1017.98 1018.17 1018.39 1018.66 1018.99 1019.36 1019.72 1020.04 1020.28 1020.43 1020.49 1020.49 1020.47 1020.46 1020.48 1020.54 1020.65 1020.77 1020.88 1020.97
1013.56 1013.65 1013.49 1013.10 1012.53 1011.86 1011.20 1010.66 1010.32 1010.24 1010.41 1010.79 1011.31 1011.88 1012.43 1012.89 1013.26 1013.53 1013.76 1014.01 1014.30 1014.68 1015.14 1015.66 1016.18 1016.67 1017.09 1017.42 1017.69 1017.91 1018.13 1018.38 1018.69 1019.04 1019.42 1019.78 1020.09 1020.33 1020.48 1020.54 1020.56 1020.56 1020.57 1020.62 1020.71 1020.83 1020.96 1021.07 1021.15
1013.17 1013.18 1012.97 1012.58 1012.05 1011.46 1010.91 1010.48 1010.22 1010.18 1010.34 1010.67 1011.10 1011.57 1012.01 1012.40 1012.71 1012.97 1013.23 1013.52 1013.88 1014.32 1014.83 1015.38 1015.92 1016.43 1016.86 1017.22 1017.52 1017.78 1018.04 1018.33 1018.65 1019.01 1019.38 1019.73 1020.03 1020.25 1020.39 1020.47 1020.51 1020.54 1020.59 1020.68 1020.80 1020.94 1021.09 1021.21 1021.28
1012.84 1012.79 1012.56 1012.19 1011.72 1011.23 1010.78 1010.43 1010.23 1010.20 1010.33 1010.57 1010.89 1011.23 1011.56 1011.85 1012.10 1012.35 1012.61 1012.93 1013.33 1013.81 1014.35 1014.93 1015.50 1016.03 1016.50 1016.90 1017.24 1017.55 1017.85 1018.17 1018.51 1018.87 1019.22 1019.55 1019.82 1020.03 1020.18 1020.27 1020.35 1020.42 1020.53 1020.66 1020.82 1021.00 1021.17 1021.30 1021.38
1012.59 1012.50 1012.26 1011.93 1011.53 1011.13 1010.76 1010.49 1010.32 1010.28 1010.35 1010.49 1010.69 1010.91 1011.11 1011.31 1011.50 1011.71 1011.96 1012.29 1012.69 1013.18 1013.74 1014.33 1014.92 1015.48 1015.99 1016.44 1016.84 1017.21 1017.56 1017.90 1018.26 1018.60 1018.94 1019.24 1019.49 1019.70 1019.86 1019.99 1020.11 1020.25 1020.42 1020.61 1020.82 1021.03 1021.22 1021.37 1021.46
1012.42 1012.28 1012.05 1011.75 1011.42 1011.10 1010.81 1010.59 1010.44 1010.37 1010.38 1010.43 1010.51 1010.61 1010.72 1010.82 1010.95 1011.11 1011.33 1011.63 1012.02 1012.49 1013.02 1013.61 1014.21 1014.79 1015.34 1015.85 1016.32 1016.75 1017.15 1017.53 1017.89 1018.23 1018.54 1018.83 1019.07 1019.29 1019.48 1019.67 1019.86 1020.08 1020.31 1020.57 1020.83 1021.07 1021.28 1021.44 1021.54
1012.31 1012.14 1011.91 1011.65 1011.38 1011.12 1010.89 1010.69 1010.55 1010.45 1010.38 1010.35 1010.34 1010.35 1010.37 1010.40 1010.47 1010.58 1010.75 1011.00 1011.34 1011.76 1012.26 1012.82 1013.41 1014.02 1014.61 1015.18 1015.72 1016.21 1016.66 1017.07 1017.45 1017.78 1018.09 1018.36 1018.62 1018.86 1019.10 1019.35 1019.63 1019.93 1020.24 1020.56 1020.86 1021.14 1021.36 1021.53 1021.62
1012.24 1012.05 1011.83 1011.61 1011.38 1011.17 1010.97 1010.79 1010.62 1010.47 1010.35 1010.24 1010.15 1010.08 1010.04 1010.02 1010.04 1010.11 1010.23 1010.42 1010.69 1011.05 1011.49 1012.00 1012.58 1013.20 1013.83 1014.46 1015.06 1015.62 1016.13 1016.58 1016.96 1017.30 1017.60 1017.88 1018.15 1018.43 1018.73 1019.06 1019.42 1019.80 1020.19 1020.57 1020.91 1021.21 1021.45 1021.61 1021.71
1012.23 1012.04 1011.84 1011.65 1011.46 1011.27 1011.08 1010.88 1010.66 1010.45 1010.24 1010.05 1009.90 1009.77 1009.69 1009.64 1009.62 1009.66 1009.73 1009.87 1010.07 1010.36 1010.73 1011.20 1011.76 1012.38 1013.05 1013.73 1014.40 1015.02 1015.58 1016.06 1016.47 1016.82 1017.12 1017.41 1017.70 1018.02 1018.38 1018.78 1019.22 1019.68 1020.13 1020.56 1020.93 1021.25 1021.49 1021.67 1021.78
1012.28 1012.12 1011.96 1011.81 1011.65 1011.46 1011.24 1010.98 1010.68 1010.36 1010.05 1009.77 1009.53 1009.36 1009.24 1009.17 1009.14 1009.16 1009.21 1009.30 1009.46 1009.68 1010.00 1010.43 1010.97 1011.60 1012.30 1013.03 1013.75 1014.43 1015.04 1015.56 1015.98 1016.34 1016.64 1016.94 1017.25 1017.60 1018.01 1018.47 1018.98 1019.49 1020.00 1020.46 1020.87 1021.20 1021.46 1021.65 1021.78
1012.39 1012.29 1012.20 1012.10 1011.96 1011.76 1011.48 1011.11 1010.68 1010.22 1009.77 1009.36 1009.02 1008.78 1008.63 1008.55 1008.53 1008.56 1008.61 1008.69 1008.81 1009.00 1009.29 1009.68 1010.21 1010.85 1011.58 1012.35 1013.13 1013.86 1014.51 1015.05 1015.49 1015.85 1016.17 1016.46 1016.78 1017.16 1017.60 1018.10 1018.65 1019.20 1019.74 1020.23 1020.65 1021.01 1021.29 1021.50 1021.68
1012.53 1012.54 1012.54 1012.50 1012.38 1012.15 1011.77 1011.26 1010.66 1010.00 1009.36 1008.79 1008.33 1008.01 1007.81 1007.73 1007.73 1007.78 1007.86 1007.96 1008.09 1008.28 1008.56 1008.95 1009.47 1010.13 1010.88 1011.69 1012.50 1013.28 1013.96 1014.53 1014.99 1015.36 1015.67 1015.96 1016.29 1016.67 1017.12 1017.63 1018.19 1018.76 1019.32 1019.82 1020.26 1020.63 1020.94 1021.20 1021.42
1012.66 1012.79 1012.91 1012.95 1012.84 1012.55 1012.06 1011.38 1010.57 1009.68 1008.82 1008.06 1007.45 1007.02 1006.78 1006.70 1006.73 1006.83 1006.96 1007.11 1007.28 1007.50 1007.80 1008.20 1008.74 1009.40 1010.18 1011.02 1011.86 1012.67 1013.38 1013.98 1014.45 1014.82 1015.13 1015.42 1015.74 1016.11 1016.56 1017.07 1017.62 1018.19 1018.74 1019.24 1019.69 1020.09 1020.42 1020.73 1021.01
1012.70 1012.97 1013.21 1013.32 1013.22 1012.88 1012.27 1011.41 1010.37 1009.25 1008.15 1007.18 1006.41 1005.87 1005.57 1005.48 1005.55 1005.71 1005.92 1006.15 1006.39 1006.66 1007.00 1007.43 1007.99 1008.67 1009.46 1010.32 1011.19 1012.01 1012.75 1013.37 1013.86 1014.24 1014.56 1014.85 1015.16 1015.52 1015.94 1016.43 1016.96 1017.51 1018.05 1018.54 1018.99 1019.40 1019.77 1020.11 1020.45
1012.59 1012.99 1013.32 1013.50 1013.42 1013.02 1012.29 1011.26 1010.02 1008.68 1007.36 1006.20 1005.27 1004.63 1004.28 1004.18 1004.29 1004.53 1004.82 1005.14 1005.46 1005.81 1006.19 1006.66 1007.24 1007.93 1008.73 1009.59 1010.47 1011.31 1012.07 1012.70 1013.22 1013.62 1013.95 1014.25 1014.56 1014.90 1015.31 1015.78 1016.28 1016.80 1017.31 1017.79 1018.23 1018.64 1019.02 1019.39 1019.77
1012.29 1012.77 1013.18 1013.40 1013.32 1012.88 1012.06 1010.91 1009.50 1007.98 1006.50 1005.18 1004.13 1003.40 1003.01 1002.92 1003.07 1003.37 1003.75 1004.16 1004.57 1004.98 1005.42 1005.92 1006.51 1007.21 1008.00 1008.85 1009.73 1010.57 1011.34 1012.00 1012.54 1012.97 1013.33 1013.65 1013.96 1014.31 1014.70 1015.15 1015.62 1016.11 1016.59 1017.05 1017.47 1017.87 1018.25 1018.63 1019.02
1011.82 1012.33 1012.76 1012.99 1012.91 1012.44 1011.57 1010.33 1008.83 1007.21 1005.62 1004.21 1003.09 1002.32 1001.90 1001.82 1002.01 1002.37 1002.82 1003.30 1003.78 1004.25 1004.74 1005.26 1005.86 1006.54 1007.31 1008.14 1009.00 1009.84 1010.61 1011.29 1011.85 1012.32 1012.72 1013.06 1013.40 1013.76 1014.15 1014.58 1015.03 1015.49 1015.95 1016.38 1016.78 1017.16 1017.52 1017.88 1018.25
1011.25 1011.70 1012.10 1012.31 1012.21 1011.72 1010.83 1009.58 1008.06 1006.43 1004.82 1003.39 1002.26 1001.48 1001.07 1001.01 1001.21 1001.61 1002.11 1002.64 1003.16 1003.67 1004.18 1004.71 1005.30 1005.96 1006.70 1007.49 1008.32 1009.13 1009.90 1010.59 1011.18 1011.69 1012.12 1012.50 1012.87 1013.25 1013.65 1014.08 1014.52 1014.97 1015.40 1015.81 1016.19 1016.54 1016.87 1017.20 1017.53
1010.67 1011.01 1011.31 1011.45 1011.30 1010.80 1009.93 1008.72 1007.27 1005.70 1004.16 1002.80 1001.71 1000.96 1000.58 1000.53 1000.74 1001.15 1001.66 1002.21 1002.75 1003.27 1003.78 1004.30 1004.87 1005.49 1006.18 1006.93 1007.72 1008.50 1009.25 1009.94 1010.55 1011.08 1011.55 1011.97 1012.37 1012.77 1013.19 1013.62 1014.07 1014.51 1014.93 1015.33 1015.69 1016.01 1016.31 1016.60 1016.89
1010.20 1010.36 1010.51 1010.52 1010.31 1009.80 1008.97 1007.85 1006.52 1005.09 1003.69 1002.45 1001.46 1000.78 1000.43 1000.38 1000.59 1000.98 1001.46 1001.99 1002.51 1003.02 1003.52 1004.02 1004.55 1005.14 1005.78 1006.48 1007.21 1007.95 1008.67 1009.35 1009.96 1010.50 1010.99 1011.44 1011.87 1012.30 1012.74 1013.18 1013.64 1014.08 1014.51 1014.90 1015.26 1015.57 1015.85 1016.11 1016.35
1009.91 1009.84 1009.78 1009.64 1009.33 1008.80 1008.02 1007.02 1005.84 1004.60 1003.38 1002.30 1001.44 1000.84 1000.53 1000.48 1000.66 1001.00 1001.43 1001.90 1002.39 1002.86 1003.33 1003.80 1004.31 1004.86 1005.46 1006.11 1006.79 1007.49 1008.17 1008.81 1009.41 1009.95 1010.45 1010.91 1011.36 1011.81 1012.26 1012.72 1013.19 1013.65 1014.09 1014.50 1014.87 1015.19 1015.46 1015.70 1015.92
Thickness
5727 5727 5726 5717 5700 5687 5690 5709 5725 5736 5746 5759 5763 5761 5756 5754 5751 5749 5760 5765 5764 5759 5756 5753 5751 5749 5747 5745 5743 5742 5740 5739 5738 5736 5735 5734 5732 5731 5730 5729 5728 5726 5725 5723 5721 5719 5718 5716 5714
5721 5722 5714 5701 5684 5676 5690 5712 5724 5739 5750 5758 5760 5758 5753 5754 5760 5758 5758 5761 5761 5758 5754 5751 5749 5747 5745 5743 5741 5739 5738 5737 5735 5734 5732 5731 5729 5728 5727 5726 5724 5722 5720 5719 5717 5715 5713 5711 5709
5716 5715 5699 5687 5679 5683 5699 5719 5729 5743 5751 5754 5753 5755 5754 5752 5756 5757 5761 5761 5758 5754 5752 5749 5747 5745 5743 5741 5739 5737 5735 5734 5733 5731 5729 5728 5726 5725 5723 5722 5720 5718 5716 5714 5712 5710 5708 5707 5705
5706 5697 5689 5678 5683 5700 5712 5725 5731 5736 5746 5752 5750 5745 5751 5760 5760 5761 5760 5758 5754 5751 5748 5746 5744 5742 5740 5738 5736 5735 5733 5731 5730 5728 5727 5725 5723 5721 5720 5718 5716 5714 5712 5710 5708 5706 5704 5702 5700
5695 5683 5673 5673 5688 5705 5717 5726 5728 5730 5736 5745 5745 5739 5745 5756 5761 5760 5757 5754 5751 5747 5745 5743 5742 5740 5737 5735 5733 5732 5730 5729 5727 5725 5724 5722 5720 5718 5716 5714 5712 5710 5708 5706 5704 5701 5699 5698 5696
5677 5670 5662 5670 5688 5706 5717 5726 5725 5726 5732 5740 5739 5734 5740 5750 5753 5754 5753 5750 5748 5745 5742 5740 5739 5737 5735 5733 5731 5729 5728 5726 5724 5722 5721 5719 5717 5714 5712 5710 5708 5706 5704 5702 5700 5697 5695 5693 5691
5667 5661 5662 5674 5685 5698 5717 5724 5720 5723 5728 5736 5740 5729 5733 5741 5747 5749 5747 5745 5743 5740 5738 5737 5735 5734 5732 5730 5728 5726 5725 5723 5721 5719 5718 5716 5713 5711 5709 5707 5705 5703 5700 5698 5696 5693 5691 5689 5687
5669 5660 5662 5671 5681 5697 5717 5722 5727 5726 5729 5741 5740 5728 5727 5738 5742 5742 5739 5737 5736 5735 5734 5733 5732 5731 5729 5727 5725 5724 5722 5720 5718 5716 5714 5712 5710 5708 5705 5703 5701 5699 5697 5694 5692 5689 5687 5685 5682
5663 5650 5658 5673 5683 5697 5713 5715 5725 5732 5732 5735 5739 5741 5746 5743 5739 5735 5730 5728 5729 5729 5730 5730 5729 5728 5726 5724 5722 5721 5719 5717 5715 5713 5711 5709 5706 5704 5702 5699 5697 5695 5693 5690 5688 5685 5683 5680 5677
5649 5648 5668 5683 5691 5697 5704 5709 5715 5719 5720 5724 5729 5736 5742 5739 5736 5732 5729 5727 5726 5726 5727 5727 5726 5725 5723 5722 5719 5718 5716 5714 5713 5710 5708 5705 5703 5700 5698 5696 5694 5691 5689 5687 5684 5681 5679 5676 5673
5646 5653 5670 5679 5688 5693 5696 5703 5711 5709 5709 5719 5724 5727 5731 5732 5731 5731 5730 5730 5730 5728 5727 5725 5724 5723 5721 5719 5717 5715 5713 5712 5710 5708 5705 5702 5699 5697 5695 5692 5690 5688 5685 5683 5680 5678 5675 5672 5668
5641 5654 5664 5673 5680 5684 5688 5695 5700 5706 5714 5727 5731 5732 5730 5728 5729 5730 5729 5728 5727 5726 5726 5725 5723 5721 5719 5717 5715 5713 5711 5709 5707 5705 5703 5700 5696 5694 5691 5689 5687 5684 5682 5679 5676 5673 5670 5667 5664
5632 5646 5657 5665 5671 5676 5681 5686 5692 5702 5716 5721 5723 5724 5726 5728 5729 5730 5731 5729 5727 5726 5725 5725 5723 5720 5718 5715 5713 5711 5709 5708 5706 5703 5701 5698 5695 5691 5689 5686 5684 5681 5679 5676 5672 5669 5666 5663 5659
5628 5636 5644 5653 5660 5668 5671 5679 5683 5699 5708 5709 5711 5714 5720 5724 5726 5724 5724 5725 5725 5726 5726 5724 5722 5720 5717 5715 5712 5710 5708 5706 5704 5702 5699 5696 5693 5690 5687 5684 5681 5678 5676 5673 5669 5666 5662 5659 5655
5616 5619 5628 5642 5651 5659 5660 5663 5680 5698 5699 5698 5703 5709 5713 5718 5721 5724 5727 5728 5728 5728 5726 5724 5722 5720 5717 5715 5712 5710 5708 5705 5703 5701 5698 5695 5692 5689 5685 5682 5679 5676 5673 5669 5666 5662 5658 5654 5651
5600 5603 5610 5635 5644 5652 5644 5652 5681 5691 5690 5691 5696 5700 5706 5712 5717 5723 5726 5728 5728 5727 5726 5724 5723 5719 5716 5714 5711 5709 5707 5704 5702 5700 5697 5694 5691 5688 5684 5680 5676 5673 5670 5666 5662 5657 5653 5649 5645
5582 5590 5605 5624 5638 5643 5639 5650 5674 5683 5684 5687 5692 5696 5701 5706 5712 5718 5723 5725 5727 5727 5725 5723 5723 5720 5717 5713 5710 5708 5706 5703 5701 5698 5696 5693 5690 5686 5682 5678 5675 5670 5666 5662 5658 5653 5649 5644 5640
5578 5586 5600 5611 5629 5632 5634 5646 5663 5675 5678 5683 5688 5693 5698 5703 5712 5718 5721 5723 5724 5725 5724 5723 5721 5719 5715 5711 5707 5705 5703 5701 5699 5697 5695 5692 5688 5685 5681 5676 5672 5668 5663 5658 5654 5649 5645 5640 5636
5576 5582 5589 5604 5620 5621 5626 5637 5652 5663 5667 5673 5680 5687 5694 5704 5712 5716 5719 5721 5720 5721 5721 5721 5719 5717 5714 5710 5706 5703 5701 5699 5697 5695 5693 5690 5687 5683 5678 5674 5669 5665 5660 5656 5651 5646 5640 5635 5630
5560 5567 5578 5593 5607 5610 5614 5625 5642 5654 5661 5671 5678 5683 5691 5699 5705 5710 5715 5717 5718 5719 5720 5720 5719 5717 5715 5713 5710 5706 5702 5698 5696 5693 5691 5688 5685 5681 5676 5672 5667 5662 5657 5652 5647 5642 5636 5630 5626
5553 5560 5572 5581 5594 5600 5601 5609 5628 5646 5658 5668 5677 5685 5691 5697 5703 5708 5711 5714 5717 5718 5720 5721 5720 5718 5715 5712 5706 5700 5695 5692 5690 5689 5688 5686 5683 5679 5675 5670 5665 5660 5655 5649 5644 5639 5634 5627 5621
5549 5564 5569 5572 5572 5578 5587 5590 5617 5635 5648 5661 5672 5681 5688 5696 5702 5707 5711 5713 5716 5719 5720 5721 5719 5717 5714 5710 5705 5700 5697 5695 5695 5691 5687 5683 5680 5677 5673 5668 5663 5658 5653 5648 5642 5637 5631 5625 5617
5548 5559 5560 5562 5562 5565 5575 5578 5605 5626 5639 5658 5671 5680 5688 5695 5700 5705 5710 5715 5717 5719 5718 5718 5717 5714 5712 5709 5706 5701 5699 5696 5691 5687 5683 5680 5676 5673 5670 5665 5660 5655 5650 5645 5640 5634 5628 5623 5616
5544 5544 5547 5549 5549 5553 5572 5571 5594 5620 5643 5659 5671 5679 5686 5692 5697 5702 5708 5711 5714 5715 5715 5714 5713 5711 5710 5707 5705 5702 5698 5693 5687 5684 5680 5677 5673 5670 5666 5662 5658 5653 5648 5642 5637 5631 5625 5619 5613
5531 5528 5529 5533 5536 5552 5574 5572 5595 5628 5646 5658 5668 5676 5684 5690 5693 5697 5701 5705 5709 5710 5711 5711 5710 5708 5707 5705 5703 5701 5697 5692 5688 5684 5680 5675 5671 5667 5664 5660 5655 5650 5645 5639 5633 5627 5621 5615 5609
5526 5525 5526 5532 5541 5553 5566 5572 5601 5630 5645 5655 5664 5672 5678 5684 5690 5695 5700 5704 5707 5708 5709 5708 5707 5706 5705 5703 5701 5699 5695 5690 5686 5682 5679 5675 5672 5668 5663 5657 5652 5647 5641 5635 5629 5623 5617 5611 5605
5519 5521 5531 5529 5535 5541 5555 5576 5599 5622 5635 5646 5655 5662 5670 5679 5686 5691 5696 5699 5703 5705 5706 5707 5705 5703 5701 5700 5698 5694 5691 5688 5684 5680 5676 5672 5668 5664 5658 5653 5647 5642 5637 5631 5625 5619 5613 5607 5600
5518 5522 5520 5518 5523 5532 5549 5565 5587 5612 5627 5638 5646 5654 5664 5672 5678 5684 5689 5693 5697 5700 5702 5702 5702 5700 5699 5697 5694 5691 5688 5685 5681 5676 5671 5668 5664 5659 5654 5648 5643 5637 5632 5626 5620 5614 5608 5602 5595
5505 5509 5512 5516 5522 5527 5538 5565 5603 5614 5626 5633 5642 5650 5657 5664 5671 5678 5683 5687 5690 5692 5693 5694 5694 5693 5692 5691 5689 5686 5684 5681 5676 5672 5669 5665 5660 5655 5650 5645 5639 5633 5627 5621 5615 5609 5603 5597 5590
5496 5500 5502 5504 5512 5522 5534 5566 5604 5609 5619 5625 5632 5639 5646 5655 5663 5670 5675 5677 5680 5683 5685 5687 5687 5687 5687 5686 5683 5681 5678 5675 5671 5668 5665 5660 5656 5651 5646 5640 5634 5628 5623 5617 5611 5604 5598 5592 5585